Time,TemperatureF,DewpointF,PressureIn,WindDirection,WindDirectionDegrees,WindSpeedMPH,WindSpeedGustMPH,Humidity,HourlyPrecipIn,Conditions,Clouds,dailyrainin,SoftwareType,DateUTC
2013-06-09 00:09:00,63.0,63.0,30.09,SSW,194,6.0,-999.0,99,-99.99,,,0.00,weatherlink.com 1.10,2013-06-09 04:09:00,
2013-06-09 00:24:00,62.9,63.0,30.10,South,175,2.0,-999.0,99,-99.99,,,0.00,weatherlink.com 1.10,2013-06-09 04:24:00,
2013-06-09 00:39:00,62.8,63.0,30.10,SE,135,10.0,-999.0,99,-99.99,,,0.00,weatherlink.com 1.10,2013-06-09 04:39:00,
2013-06-09 00:54:00,62.8,63.0,30.10,South,180,6.0,-999.0,99,-99.99,,,0.00,weatherlink.com 1.10,2013-06-09 04:54:00,
2013-06-09 01:09:00,62.7,63.0,30.10,SW,221,8.0,-999.0,99,-99.99,,,0.00,weatherlink.com 1.10,2013-06-09 05:09:00,
2013-06-09 01:24:00,62.8,63.0,30.09,South,180,8.0,-999.0,99,-99.99,,,0.00,weatherlink.com 1.10,2013-06-09 05:24:00,
2013-06-09 01:39:00,62.7,63.0,30.09,West,267,5.0,-999.0,99,-99.99,,,0.00,weatherlink.com 1.10,2013-06-09 05:39:00,
2013-06-09 01:54:00,62.5,62.0,30.09,West,265,4.0,-999.0,99,-99.99,,,0.00,weatherlink.com 1.10,2013-06-09 05:54:00,
2013-06-09 02:09:00,62.4,62.0,30.09,WSW,251,4.0,-999.0,99,-99.99,,,0.00,weatherlink.com 1.10,2013-06-09 06:09:00,
2013-06-09 02:24:00,62.1,62.0,30.09,West,272,4.0,-999.0,99,-99.99,,,0.00,weatherlink.com 1.10,2013-06-09 06:24:00,
2013-06-09 02:39:00,61.8,62.0,30.08,WNW,282,3.0,-999.0,99,-99.99,,,0.00,weatherlink.com 1.10,2013-06-09 06:39:00,
2013-06-09 02:54:00,62.0,62.0,30.09,WNW,282,5.0,-999.0,99,-99.99,,,0.00,weatherlink.com 1.10,2013-06-09 06:54:00,
2013-06-09 03:09:00,62.2,62.0,30.09,SSW,198,3.0,-999.0,99,-99.99,,,0.00,weatherlink.com 1.10,2013-06-09 07:09:00,
2013-06-09 03:24:00,62.1,62.0,30.09,WSW,241,6.0,-999.0,99,-99.99,,,0.00,weatherlink.com 1.10,2013-06-09 07:24:00,
2013-06-09 03:39:00,62.1,62.0,30.09,SW,216,8.0,-999.0,99,-99.99,,,0.00,weatherlink.com 1.10,2013-06-09 07:39:00,
2013-06-09 03:54:00,61.9,62.0,30.09,West,281,4.0,-999.0,99,-99.99,,,0.00,weatherlink.com 1.10,2013-06-09 07:54:00,
2013-06-09 04:09:00,61.4,61.0,30.09,WNW,294,3.0,-999.0,99,-99.99,,,0.00,weatherlink.com 1.10,2013-06-09 08:09:00,
2013-06-09 04:24:00,61.2,61.0,30.09,WNW,294,5.0,-999.0,99,-99.99,,,0.00,weatherlink.com 1.10,2013-06-09 08:24:00,
2013-06-09 04:39:00,60.6,60.0,30.10,NW,308,6.0,-999.0,99,-99.99,,,0.00,weatherlink.com 1.10,2013-06-09 08:39:00,
2013-06-09 04:54:00,61.0,61.0,30.10,WNW,302,7.0,-999.0,99,-99.99,,,0.00,weatherlink.com 1.10,2013-06-09 08:54:00,
2013-06-09 05:09:00,61.5,59.0,30.09,WNW,300,8.0,-999.0,92,-99.99,,,0.00,weatherlink.com 1.10,2013-06-09 09:09:00,
2013-06-09 05:24:00,61.7,59.0,30.10,NNW,331,5.0,-999.0,91,-99.99,,,0.00,weatherlink.com 1.10,2013-06-09 09:24:00,
2013-06-09 05:39:00,61.6,58.0,30.11,NW,312,7.0,-999.0,88,-99.99,,,0.00,weatherlink.com 1.10,2013-06-09 09:39:00,
2013-06-09 05:54:00,61.7,57.0,30.11,NW,311,5.0,-999.0,85,-99.99,,,0.00,weatherlink.com 1.10,2013-06-09 09:54:00,
2013-06-09 06:09:00,61.7,57.0,30.11,NW,313,6.0,-999.0,85,-99.99,,,0.00,weatherlink.com 1.10,2013-06-09 10:09:00,
2013-06-09 06:24:00,61.9,56.0,30.11,NW,304,6.0,-999.0,82,-99.99,,,0.00,weatherlink.com 1.10,2013-06-09 10:24:00,
2013-06-09 06:39:00,62.0,57.0,30.12,NW,309,5.0,-999.0,83,-99.99,,,0.00,weatherlink.com 1.10,2013-06-09 10:39:00,
2013-06-09 06:54:00,62.9,56.0,30.13,WNW,300,5.0,-999.0,77,-99.99,,,0.00,weatherlink.com 1.10,2013-06-09 10:54:00,
2013-06-09 07:09:00,63.2,56.0,30.13,WNW,300,3.0,-999.0,76,-99.99,,,0.00,weatherlink.com 1.10,2013-06-09 11:09:00,
2013-06-09 07:24:00,63.0,56.0,30.13,NW,311,2.0,-999.0,77,-99.99,,,0.00,weatherlink.com 1.10,2013-06-09 11:24:00,
2013-06-09 07:39:00,63.2,56.0,30.14,NW,311,4.0,-999.0,76,-99.99,,,0.00,weatherlink.com 1.10,2013-06-09 11:39:00,
2013-06-09 07:54:00,63.4,56.0,30.15,NW,321,2.0,-999.0,77,-99.99,,,0.00,weatherlink.com 1.10,2013-06-09 11:54:00,
2013-06-09 08:09:00,64.2,56.0,30.15,NW,321,1.0,-999.0,75,-99.99,,,0.00,weatherlink.com 1.10,2013-06-09 12:09:00,
2013-06-09 08:24:00,65.1,57.0,30.15,NW,321,0.0,-999.0,74,-99.99,,,0.00,weatherlink.com 1.10,2013-06-09 12:24:00,
2013-06-09 08:39:00,65.6,57.0,30.15,SSW,194,2.0,-999.0,74,-99.99,,,0.00,weatherlink.com 1.10,2013-06-09 12:39:00,
2013-06-09 08:54:00,66.2,56.0,30.15,SW,217,1.0,-999.0,70,-99.99,,,0.00,weatherlink.com 1.10,2013-06-09 12:54:00,
2013-06-09 09:09:00,66.8,56.0,30.15,WSW,238,3.0,-999.0,69,-99.99,,,0.00,weatherlink.com 1.10,2013-06-09 13:09:00,
2013-06-09 09:25:00,66.9,57.0,30.15,SW,222,0.0,-999.0,71,-99.99,,,0.00,weatherlink.com 1.10,2013-06-09 13:25:00,
2013-06-09 09:40:00,67.4,57.0,30.15,SSW,196,2.0,-999.0,69,-99.99,,,0.00,weatherlink.com 1.10,2013-06-09 13:40:00,
2013-06-09 09:55:00,68.2,58.0,30.15,SSW,206,0.0,-999.0,70,-99.99,,,0.00,weatherlink.com 1.10,2013-06-09 13:55:00,
2013-06-09 10:09:00,69.2,59.0,30.14,SW,215,2.0,-999.0,71,-99.99,,,0.00,weatherlink.com 1.10,2013-06-09 14:09:00,
2013-06-09 10:25:00,69.4,61.0,30.14,SSW,206,2.0,-999.0,75,-99.99,,,0.00,weatherlink.com 1.10,2013-06-09 14:25:00,
2013-06-09 10:40:00,69.9,62.0,30.14,SSW,205,1.0,-999.0,77,-99.99,,,0.00,weatherlink.com 1.10,2013-06-09 14:40:00,
2013-06-09 10:55:00,69.3,63.0,30.14,WSW,241,3.0,-999.0,80,-99.99,,,0.00,weatherlink.com 1.10,2013-06-09 14:55:00,
2013-06-09 11:10:00,68.9,63.0,30.14,SW,216,2.0,-999.0,82,-99.99,,,0.00,weatherlink.com 1.10,2013-06-09 15:10:00,
2013-06-09 11:25:00,68.9,64.0,30.14,SSW,205,3.0,-999.0,83,-99.99,,,0.00,weatherlink.com 1.10,2013-06-09 15:25:00,
2013-06-09 11:40:00,69.2,63.0,30.14,WNW,288,0.0,-999.0,81,-99.99,,,0.00,weatherlink.com 1.10,2013-06-09 15:40:00,
2013-06-09 11:55:00,69.2,63.0,30.13,SSW,209,2.0,-999.0,81,-99.99,,,0.00,weatherlink.com 1.10,2013-06-09 15:55:00,
2013-06-09 12:10:00,69.5,64.0,30.13,SW,224,1.0,-999.0,83,-99.99,,,0.00,weatherlink.com 1.10,2013-06-09 16:10:00,
2013-06-09 12:25:00,69.0,65.0,30.13,WSW,238,2.0,-999.0,86,-99.99,,,0.00,weatherlink.com 1.10,2013-06-09 16:25:00,
2013-06-09 12:40:00,68.1,65.0,30.12,SW,230,0.0,-999.0,88,-99.99,,,0.00,weatherlink.com 1.10,2013-06-09 16:40:00,
2013-06-09 12:55:00,68.9,65.0,30.12,SSW,209,3.0,-999.0,88,-99.99,,,0.00,weatherlink.com 1.10,2013-06-09 16:55:00,
2013-06-09 13:10:00,70.2,66.0,30.11,ESE,116,5.0,-999.0,85,-99.99,,,0.00,weatherlink.com 1.10,2013-06-09 17:10:00,
2013-06-09 13:25:00,70.2,64.0,30.10,East,88,1.0,-999.0,80,-99.99,,,0.00,weatherlink.com 1.10,2013-06-09 17:25:00,
2013-06-09 13:40:00,70.3,64.0,30.09,South,169,1.0,-999.0,81,-99.99,,,0.00,weatherlink.com 1.10,2013-06-09 17:40:00,
2013-06-09 13:55:00,70.7,64.0,30.08,SSE,156,2.0,-999.0,80,-99.99,,,0.00,weatherlink.com 1.10,2013-06-09 17:55:00,
2013-06-09 14:10:00,69.8,64.0,30.09,SSW,209,0.0,-999.0,83,-99.99,,,0.00,weatherlink.com 1.10,2013-06-09 18:10:00,
2013-06-09 14:25:00,69.0,65.0,30.08,SW,223,0.0,-999.0,88,-99.99,,,0.00,weatherlink.com 1.10,2013-06-09 18:25:00,
2013-06-09 14:40:00,68.2,64.0,30.07,South,176,0.0,-999.0,86,-99.99,,,0.00,weatherlink.com 1.10,2013-06-09 18:40:00,
2013-06-09 14:55:00,65.8,64.0,30.07,West,274,0.0,-999.0,92,-99.99,,,0.13,weatherlink.com 1.10,2013-06-09 18:55:00,
2013-06-09 15:10:00,65.0,64.0,30.06,SSE,150,0.0,-999.0,96,-99.99,,,0.23,weatherlink.com 1.10,2013-06-09 19:10:00,
2013-06-09 15:25:00,65.2,64.0,30.06,South,175,1.0,-999.0,96,-99.99,,,0.23,weatherlink.com 1.10,2013-06-09 19:25:00,
2013-06-09 15:40:00,65.7,64.0,30.07,ESE,108,4.0,-999.0,95,-99.99,,,0.23,weatherlink.com 1.10,2013-06-09 19:40:00,
2013-06-09 15:55:00,65.5,64.0,30.07,SSE,167,0.0,-999.0,94,-99.99,,,0.23,weatherlink.com 1.10,2013-06-09 19:55:00,
2013-06-09 16:10:00,65.2,63.0,30.07,SW,233,0.0,-999.0,93,-99.99,,,0.23,weatherlink.com 1.10,2013-06-09 20:10:00,
2013-06-09 16:25:00,65.1,63.0,30.07,SSE,148,4.0,-999.0,94,-99.99,,,0.24,weatherlink.com 1.10,2013-06-09 20:25:00,
2013-06-09 16:40:00,64.8,63.0,30.07,SW,223,3.0,-999.0,95,-99.99,,,0.26,weatherlink.com 1.10,2013-06-09 20:40:00,
2013-06-09 16:55:00,64.2,63.0,30.07,SE,130,5.0,-999.0,95,-99.99,,,0.30,weatherlink.com 1.10,2013-06-09 20:55:00,
2013-06-09 17:10:00,61.8,61.0,30.07,SE,132,6.0,-999.0,97,-99.99,,,0.50,weatherlink.com 1.10,2013-06-09 21:10:00,
2013-06-09 17:25:00,60.8,60.0,30.07,SE,134,4.0,-999.0,97,-99.99,,,0.67,weatherlink.com 1.10,2013-06-09 21:25:00,
2013-06-09 17:40:00,60.9,60.0,30.08,SSE,163,4.0,-999.0,98,-99.99,,,0.85,weatherlink.com 1.10,2013-06-09 21:40:00,
2013-06-09 17:55:00,61.0,61.0,30.07,South,177,8.0,-999.0,98,-99.99,,,0.98,weatherlink.com 1.10,2013-06-09 21:55:00,
2013-06-09 18:10:00,60.6,60.0,30.07,SSE,159,7.0,-999.0,98,-99.99,,,1.00,weatherlink.com 1.10,2013-06-09 22:10:00,
2013-06-09 18:25:00,60.8,61.0,30.06,SSW,205,8.0,-999.0,99,-99.99,,,1.01,weatherlink.com 1.10,2013-06-09 22:25:00,
2013-06-09 18:40:00,60.5,60.0,30.05,SW,220,1.0,-999.0,99,-99.99,,,1.02,weatherlink.com 1.10,2013-06-09 22:40:00,
2013-06-09 18:55:00,60.2,60.0,30.06,SW,225,4.0,-999.0,99,-99.99,,,1.02,weatherlink.com 1.10,2013-06-09 22:55:00,
2013-06-09 19:10:00,60.9,61.0,30.06,South,188,1.0,-999.0,99,-99.99,,,1.04,weatherlink.com 1.10,2013-06-09 23:10:00,
2013-06-09 19:25:00,61.1,61.0,30.06,SSW,212,10.0,-999.0,99,-99.99,,,1.17,weatherlink.com 1.10,2013-06-09 23:25:00,
2013-06-09 19:40:00,60.9,61.0,30.06,SSE,167,1.0,-999.0,99,-99.99,,,1.19,weatherlink.com 1.10,2013-06-09 23:40:00,
2013-06-09 19:55:00,61.1,61.0,30.06,SSE,153,6.0,-999.0,99,-99.99,,,1.21,weatherlink.com 1.10,2013-06-09 23:55:00,
2013-06-09 20:10:00,61.2,61.0,30.06,South,178,5.0,-999.0,99,-99.99,,,1.24,weatherlink.com 1.10,2013-06-10 00:10:00,
2013-06-09 20:25:00,61.1,61.0,30.06,SSW,204,7.0,-999.0,99,-99.99,,,1.25,weatherlink.com 1.10,2013-06-10 00:25:00,
2013-06-09 20:40:00,61.0,61.0,30.07,SSW,202,8.0,-999.0,99,-99.99,,,1.25,weatherlink.com 1.10,2013-06-10 00:40:00,
2013-06-09 20:55:00,60.9,61.0,30.06,SSE,157,4.0,-999.0,99,-99.99,,,1.25,weatherlink.com 1.10,2013-06-10 00:55:00,
2013-06-09 21:10:00,60.9,61.0,30.05,SW,227,4.0,-999.0,99,-99.99,,,1.25,weatherlink.com 1.10,2013-06-10 01:10:00,
2013-06-09 21:25:00,61.0,61.0,30.05,South,172,0.0,-999.0,99,-99.99,,,1.25,weatherlink.com 1.10,2013-06-10 01:25:00,
2013-06-09 21:40:00,61.0,61.0,30.06,WSW,242,3.0,-999.0,99,-99.99,,,1.30,weatherlink.com 1.10,2013-06-10 01:40:00,
2013-06-09 21:55:00,61.0,61.0,30.06,SSE,163,4.0,-999.0,99,-99.99,,,1.37,weatherlink.com 1.10,2013-06-10 01:55:00,
2013-06-09 22:10:00,60.9,61.0,30.06,SSW,200,9.0,-999.0,99,-99.99,,,1.42,weatherlink.com 1.10,2013-06-10 02:10:00,
2013-06-09 22:25:00,60.6,60.0,30.07,SSE,157,5.0,-999.0,99,-99.99,,,1.44,weatherlink.com 1.10,2013-06-10 02:25:00,
2013-06-09 22:40:00,60.6,60.0,30.06,South,181,4.0,-999.0,99,-99.99,,,1.45,weatherlink.com 1.10,2013-06-10 02:40:00,
2013-06-09 22:55:00,60.7,61.0,30.06,SW,232,1.0,-999.0,99,-99.99,,,1.46,weatherlink.com 1.10,2013-06-10 02:55:00,
2013-06-09 23:10:00,60.8,61.0,30.05,SSE,166,5.0,-999.0,99,-99.99,,,1.47,weatherlink.com 1.10,2013-06-10 03:10:00,
2013-06-09 23:25:00,60.8,61.0,30.05,SE,146,6.0,-999.0,100,-99.99,,,1.47,weatherlink.com 1.10,2013-06-10 03:25:00,
2013-06-09 23:40:00,60.8,61.0,30.05,SSE,157,1.0,-999.0,100,-99.99,,,1.48,weatherlink.com 1.10,2013-06-10 03:40:00,
2013-06-09 23:55:00,60.8,61.0,30.05,SE,143,5.0,-999.0,100,-99.99,,,1.49,weatherlink.com 1.10,2013-06-10 03:55:00,